When you browse on this site, cookies collect data to enhance your experience and personalize the content and advertising you see.
Visit our Privacy Policy to learn more. By continuing to use the site, you agree to this use of cookies and data.
  • In Austria
  • List of Countries
  • For 7 days
  • Water Temperature
  • Satellite Maps
  • Weather Map
  • News
  • Weather Widgets
  • user-avatar
    Login

    Hourly Weather Troy

    Today, 19 February, Tuesday

    Time Temperature Precipitation Wind Pressure Humidity
    00:00 -10°C° 0 mm 3 mps 769 mmHg 77%
    01:00 -12°C° 0 mm 3 mps 770 mmHg 77%
    02:00 -12°C° 0 mm 3 mps 770 mmHg 77%
    03:00 -12°C° 0 mm 3 mps 771 mmHg 78%
    04:00 -12°C° 0 mm 3 mps 771 mmHg 79%
    05:00 -10°C° 0 mm 2 mps 772 mmHg 79%
    06:00 -12°C° 0 mm 2 mps 772 mmHg 79%
    07:00 -12°C° 0 mm 2 mps 773 mmHg 79%
    08:00 -12°C° 0 mm 3 mps 773 mmHg 73%
    09:00 -10°C° 0 mm 3 mps 774 mmHg 67%
    10:00 -10°C° 0 mm 4 mps 774 mmHg 61%
    11:00 -8°C° 0 mm 4 mps 774 mmHg 60%
    12:00 -7°C° 0 mm 4 mps 774 mmHg 58%
    13:00 -5°C° 0 mm 4 mps 774 mmHg 56%
    14:00 -5°C° 0 mm 4 mps 774 mmHg 58%
    15:00 -5°C° 0 mm 4 mps 774 mmHg 59%
    16:00 -5°C° 0 mm 4 mps 774 mmHg 61%
    17:00 -7°C° 0 mm 4 mps 774 mmHg 66%
    18:00 -7°C° 0 mm 3 mps 775 mmHg 71%
    19:00 -8°C° 0 mm 3 mps 776 mmHg 76%
    20:00 -8°C° 0 mm 2 mps 775 mmHg 79%
    21:00 -8°C° 0 mm 2 mps 775 mmHg 81%
    22:00 -8°C° 0 mm 1 mps 775 mmHg 83%
    23:00 -8°C° 0 mm 1 mps 775 mmHg 84%

    Tomorrow, 20 February, Wednesday

    Time Temperature Precipitation Wind Pressure Humidity
    00:00 -8°C° 0 mm 1 mps 775 mmHg 85%
    01:00 -8°C° 0 mm 1 mps 776 mmHg 86%
    02:00 -8°C° 0 mm 1 mps 776 mmHg 86%
    03:00 -8°C° 0 mm 1 mps 775 mmHg 86%
    04:00 -8°C° 0 mm 1 mps 775 mmHg 86%
    05:00 -8°C° 0 mm 1 mps 775 mmHg 86%
    06:00 -8°C° 0 mm 1 mps 775 mmHg 85%
    07:00 -8°C° 0 mm 0 mps 775 mmHg 85%
    08:00 -6°C° 0 mm 1 mps 775 mmHg 79%
    09:00 -4°C° 0 mm 1 mps 774 mmHg 72%
    10:00 -2°C° 0 mm 1 mps 774 mmHg 66%
    11:00 -1°C° 0 mm 1 mps 773 mmHg 63%
    12:00 0°C° 0 mm 1 mps 773 mmHg 60%
    13:00 -1°C° 0 mm 2 mps 772 mmHg 56%
    14:00 -1°C° 0 mm 2 mps 771 mmHg 58%
    15:00 -1°C° 0 mm 3 mps 771 mmHg 59%
    16:00 -1°C° 0 mm 3 mps 770 mmHg 60%
    17:00 -2°C° 0 mm 3 mps 769 mmHg 65%
    18:00 -2°C° 0 mm 3 mps 769 mmHg 70%
    19:00 -4°C° 0 mm 4 mps 768 mmHg 75%
    20:00 -4°C° 0.3 mm 4 mps 767 mmHg 79%
    21:00 -3°C° 0.3 mm 4 mps 766 mmHg 83%
    22:00 -3°C° 0.3 mm 4 mps 765 mmHg 87%
    23:00 -2°C° 1.4 mm 4 mps 763 mmHg 89%

    Day after tomorrow, 21 February, Thursday

    Time Temperature Precipitation Wind Pressure Humidity
    00:00 -2°C° 1.4 mm 4 mps 762 mmHg 91%
    01:00 -1°C° 1.4 mm 4 mps 761 mmHg 92%
    02:00 0°C° 0.5 mm 4 mps 759 mmHg 93%
    03:00 +2°C° 0.5 mm 3 mps 757 mmHg 94%
    04:00 +3°C° 0.5 mm 3 mps 756 mmHg 94%
    05:00 +3°C° 0.4 mm 3 mps 755 mmHg 95%
    06:00 +4°C° 0.4 mm 2 mps 754 mmHg 95%
    07:00 +4°C° 0.4 mm 2 mps 753 mmHg 96%
    08:00 +5°C° 0 mm 3 mps 754 mmHg 93%
    09:00 +6°C° 0 mm 4 mps 754 mmHg 90%
    10:00 +8°C° 0 mm 5 mps 754 mmHg 87%
    11:00 +7°C° 0 mm 6 mps 754 mmHg 82%
    12:00 +5°C° 0 mm 6 mps 754 mmHg 77%
    13:00 +4°C° 0 mm 6 mps 755 mmHg 72%
    14:00 +4°C° 0 mm 6 mps 755 mmHg 73%
    15:00 +3°C° 0 mm 5 mps 756 mmHg 73%
    16:00 +3°C° 0 mm 5 mps 756 mmHg 73%
    17:00 +2°C° 0 mm 5 mps 757 mmHg 75%
    18:00 +1°C° 0 mm 4 mps 758 mmHg 76%
    19:00 0°C° 0 mm 4 mps 758 mmHg 78%
    20:00 0°C° 0 mm 4 mps 759 mmHg 78%
    21:00 0°C° 0 mm 4 mps 760 mmHg 78%
    22:00 0°C° 0 mm 4 mps 761 mmHg 77%
    23:00 -1°C° 0 mm 4 mps 761 mmHg 78%

    22 February, Friday

    Time Temperature Precipitation Wind Pressure Humidity
    00:00 -2°C° 0 mm 4 mps 762 mmHg 78%
    01:00 -1°C° 0 mm 3 mps 763 mmHg 79%
    02:00 -1°C° 0 mm 3 mps 763 mmHg 79%
    03:00 -3°C° 0 mm 4 mps 764 mmHg 79%
    04:00 -3°C° 0 mm 4 mps 765 mmHg 80%
    05:00 -2°C° 0 mm 3 mps 765 mmHg 80%
    06:00 -2°C° 0 mm 3 mps 766 mmHg 81%
    07:00 -2°C° 0 mm 3 mps 767 mmHg 82%
    08:00 -1°C° 0 mm 3 mps 768 mmHg 77%
    09:00 -1°C° 0 mm 4 mps 768 mmHg 73%
    10:00 0°C° 0 mm 4 mps 769 mmHg 68%
    11:00 +1°C° 0 mm 4 mps 769 mmHg 67%
    12:00 +1°C° 0 mm 4 mps 769 mmHg 66%
    13:00 +3°C° 0 mm 4 mps 769 mmHg 65%
    14:00 +2°C° 0 mm 3 mps 769 mmHg 65%
    15:00 +2°C° 0 mm 3 mps 769 mmHg 66%
    16:00 +2°C° 0 mm 3 mps 769 mmHg 67%
    17:00 +1°C° 0 mm 3 mps 770 mmHg 72%
    18:00 +2°C° 0 mm 2 mps 771 mmHg 76%
    19:00 +1°C° 0 mm 2 mps 771 mmHg 81%
    20:00 -1°C° 0 mm 2 mps 772 mmHg 82%
    21:00 +1°C° 0 mm 1 mps 772 mmHg 84%
    22:00 0°C° 0 mm 1 mps 772 mmHg 85%
    23:00 0°C° 0 mm 1 mps 772 mmHg 86%

    23 February, Saturday

    Time Temperature Precipitation Wind Pressure Humidity
    00:00 0°C° 0 mm 1 mps 772 mmHg 86%
    01:00 -1°C° 0 mm 1 mps 772 mmHg 87%
    02:00 -1°C° 0 mm 1 mps 772 mmHg 87%
    03:00 -2°C° 0 mm 0 mps 772 mmHg 86%
    04:00 -2°C° 0 mm 0 mps 771 mmHg 86%
    05:00 -2°C° 0 mm 0 mps 771 mmHg 86%
    06:00 -2°C° 0 mm 0 mps 772 mmHg 86%
    07:00 -2°C° 0 mm 0 mps 772 mmHg 85%
    08:00 -1°C° 0 mm 0 mps 772 mmHg 78%
    09:00 +1°C° 0 mm 0 mps 771 mmHg 71%
    10:00 +3°C° 0 mm 0 mps 771 mmHg 64%
    11:00 +4°C° 0 mm 0 mps 770 mmHg 60%
    12:00 +6°C° 0 mm 1 mps 770 mmHg 57%
    13:00 +7°C° 0 mm 1 mps 769 mmHg 53%
    14:00 +7°C° 0 mm 1 mps 768 mmHg 57%
    15:00 +7°C° 0 mm 1 mps 768 mmHg 61%
    16:00 +7°C° 0 mm 1 mps 767 mmHg 65%
    17:00 +5°C° 0 mm 1 mps 767 mmHg 70%
    18:00 +4°C° 0 mm 1 mps 767 mmHg 76%
    19:00 +3°C° 0 mm 1 mps 767 mmHg 82%
    20:00 +2°C° 0 mm 1 mps 766 mmHg 83%
    21:00 +2°C° 0 mm 1 mps 766 mmHg 84%
    22:00 +2°C° 0 mm 1 mps 765 mmHg 85%
    23:00 +1°C° 0 mm 2 mps 764 mmHg 84%

    24 February, Sunday

    Time Temperature Precipitation Wind Pressure Humidity
    00:00 +2°C° 0 mm 2 mps 764 mmHg 82%
    01:00 +2°C° 0 mm 2 mps 763 mmHg 81%
    02:00 +2°C° 0.3 mm 2 mps 762 mmHg 83%
    03:00 +2°C° 0.3 mm 2 mps 761 mmHg 85%
    04:00 +3°C° 0.3 mm 2 mps 759 mmHg 87%
    05:00 +3°C° 2.7 mm 2 mps 758 mmHg 89%
    06:00 +2°C° 2.7 mm 3 mps 757 mmHg 90%
    07:00 +2°C° 2.7 mm 3 mps 756 mmHg 91%
    08:00 +2°C° 1.8 mm 3 mps 756 mmHg 91%
    09:00 +3°C° 1.8 mm 3 mps 755 mmHg 90%
    10:00 +3°C° 1.8 mm 3 mps 754 mmHg 90%
    11:00 +4°C° 0.8 mm 4 mps 752 mmHg 89%
    12:00 +4°C° 0.8 mm 4 mps 751 mmHg 89%
    13:00 +5°C° 0.8 mm 4 mps 749 mmHg 89%
    14:00 +5°C° 0.1 mm 4 mps 748 mmHg 89%
    15:00 +6°C° 0.1 mm 4 mps 747 mmHg 90%
    16:00 +6°C° 0.1 mm 4 mps 746 mmHg 90%
    17:00 +6°C° 0 mm 4 mps 746 mmHg 91%
    18:00 +6°C° 0 mm 4 mps 746 mmHg 93%
    19:00 +7°C° 0 mm 3 mps 745 mmHg 94%
    20:00 +5°C° 0.2 mm 3 mps 745 mmHg 89%
    21:00 +5°C° 0.2 mm 3 mps 745 mmHg 85%
    22:00 +5°C° 0.2 mm 3 mps 745 mmHg 81%
    23:00 +4°C° 0 mm 3 mps 745 mmHg 80%
    Show more